Tracking 22456 objects as of 7-Mar-2021
HD Live streaming from Space Station
objects crossing your sky now

THOR ABLESTAR R/B

Track THOR ABLESTAR R/B now!
10-day predictions


NORAD ID: 893
Int'l Code: 1964-063A
Perigee: 1,036.5 km
Apogee: 1,077.3 km
Inclination: 90.2 °
Period: 106.2 minutes
Semi major axis: 7427 km
RCS: 4.0212 m2 (large)
Launch date: October 6, 1964
Source: United States (US)
Launch site: AIR FORCE WESTERN TEST RANGE (AFWTR)

Note: This is a ROCKET BODY
aabbcc
Your satellite tracking list
Your tracking list is empty




NASA's NSSDC Master Catalog

Two Line Element Set (TLE):
1 00893U 64063A   21065.66744281  .00000026  00000-0  23996-4 0  9992
2 00893  90.1674  35.5294 0027441  94.7331  78.1183 13.56136128790631
Source of the keplerian elements: AFSPC